Tracking 28790 objects as of 19-Apr-2024
HD Live streaming from Space Station
objects crossing your sky now

FENGYUN 1C DEB

Track FENGYUN 1C DEB now!
10-day predictions


NORAD ID: 31532
Int'l Code: 1999-025BXX
Perigee: 646.3 km
Apogee: 762.7 km
Inclination: 99.2 °
Period: 98.7 minutes
Semi major axis: 7075 km
RCS: 0.015 m2 (small)
Launch date: May 10, 1999
Source: People's Republic of China (PRC)
Launch site: Taiyaun Space Center, China (TSC)

Note: This is SATELLITE DEBRIS
Your satellite tracking list
Your tracking list is empty




NASA's NSSDC Master Catalog

Two Line Element Set (TLE):
1 31532U 99025BXX 24108.92613268  .00078642  00000-0  15918-1 0  9993
2 31532  99.1758   6.5562 0082244 123.1811 237.7307 14.58714111879619
Source of the keplerian elements: AFSPC